User: anonymous   Login
Location: Unspecified
(42.0334°N, 93.6656°W)
Time: 06:27:26
(UTC-05:00)
Language:

Iridium 63 - Orbit

View from above orbital plane
View from above orbital plane
View from above satellite
View from above satellite

Ground track
Ground track

The orbit data is extracted from the following two-line orbital elements,

1 25286U 98021B   15125.27012720  .00000255  00000-0  83539-4 0  9992
2 25286 086.4030 187.7475 0002551 094.0020 330.7059 14.34443495894091
Epoch (UTC): 05 May 2015 06:28:58
Eccentricity: 0.0002551
inclination: 86.4030°
perigee height: 775 km
apogee height: 779 km
right ascension of ascending node: 187.7475°
argument of perigee: 94.0020°
revolutions per day: 14.34443495
mean anomaly at epoch: 330.7059°
orbit number at epoch: 89409

The dashed part of the orbit path shows where the satellite is in the earth's shadow,  

DLR